Vertical_Velocity
-0 -1 1 2 1 -6 5 10 -6 21 1 0 -1 1 1 1 1 -1 -3 -2 -4 7 4 1 -0 -1 -3 0 1 -1 1 -1 -1 -0 -0 1 -2 -2 -0 -0 -0 -1 2 -2
-0 2 1 1 3 -3 3 5 -4 2 1 1 -0 0 -2 -1 2 0 6 -3 3 -6 -5 4 -1 -1 -2 -0 1 4 0 0 1 -0 1 -0 -2 -0 -1 -1 -1 -1 -1 -2
0 1 1 -3 -3 0 -2 6 -7 -5 -6 -1 0 0 1 -2 -0 1 4 4 -5 -3 21 -6 1 -1 -2 0 1 -0 -1 -3 -2 1 -0 -0 -2 -1 0 0 -0 0 -1 -2
1 2 -3 3 -2 -0 20 2 -4 -3 1 -6 -2 -1 -2 -1 -0 -0 -7 -0 5 -1 -6 2 3 -1 -3 1 2 2 -2 -3 -2 -0 -0 2 0 -0 -1 -1 0 -0 -1 -1
0 -1 2 0 0 -3 -2 6 6 -6 -6 -4 2 -2 -5 -6 -3 -3 -5 -4 -1 -1 -3 6 1 -1 -1 -1 1 3 -1 -1 -0 -1 -1 1 -2 1 -1 0 -1 -1 -0 -1
-3 -1 -0 0 -2 -6 -4 -7 -7 -3 -4 -7 6 -7 -2 8 -1 4 -1 -0 -3 6 1 0 2 -2 0 -2 -0 2 2 0 -0 0 -2 1 1 -0 -1 0 0 -1 -1 -1
-1 -2 -2 -4 -3 -3 -3 -3 -3 -9 -5 8 -3 -4 -6 16 1 -2 7 -7 1 1 -1 -1 -2 -0 0 -1 -1 1 1 1 -0 -1 -0 0 0 -1 1 0 -1 -1 0 1
-2 -9 -2 -2 -3 2 -2 -6 7 6 6 -14 0 -2 -3 5 -1 3 -7 1 -0 3 2 1 2 -3 -1 -1 -1 0 1 0 -0 0 -0 1 2 0 -2 -2 1 -1 0 -0
12 5 -2 -1 -3 -0 0 -9 -3 31 -10 1 5 -3 2 -1 -4 -5 1 -1 1 1 -2 -3 1 -1 -2 -1 -1 -1 0 0 0 -0 0 0 0 -0 -2 -1 0 -1 -1 -1
-5 7 2 -4 3 4 -3 15 -8 -12 -5 1 -0 70 6 0 -6 -5 -0 -0 -1 0 -1 10 -2 -0 -0 -4 -1 0 -0 0 -0 -0 0 0 -0 0 1 1 3 0 -2 -1
-7 3 1 5 -4 9 4 7 -9 1 2 -0 9 31 14 13 -3 -4 -3 -2 -0 -1 2 3 5 -1 -1 -3 -5 -1 0 -0 0 -1 -2 1 -1 -1 -0 0 2 -1 -1 -0
-4 2 -4 39 -3 -9 -28 -5 -2 5 40 -13 6 40 34 9 1 -4 1 -1 -3 1 1 -8 -5 -8 -3 -3 -3 -3 -1 0 0 1 0 -1 -1 1 2 -0 -1 -0 -1 -1
-12 -3 8 -1 11 -5 2 -12 -26 -2 11 -16 -1 -14 -29 -2 -4 -6 -0 -4 -4 -2 -1 12 -13 20 -2 -2 -3 -2 -1 -2 -2 -1 -1 -0 -0 -0 -1 -1 1 2 3 -0
-3 -6 -4 29 8 4 -4 35 -14 -12 -3 5 2 1 59 25 5 -10 -4 -4 -6 -3 -1 7 -4 214 11 -7 -8 -2 -1 -1 -1 -3 -2 -1 -1 -3 -3 -1 1 -1 -1 -0
-1 -7 -5 9 -4 -4 7 -7 35 6 24 -0 6 -8 137 -2 15 -8 -5 -8 -6 -2 -1 -0 -6 18 -2 -4 -3 37 -1 1 -2 -0 0 -0 -2 -1 1 -1 -1 -0 -2 -2
2 -5 -7 -9 7 -3 -8 7 -25 -8 -11 58 5 -46 -14 5 6 -3 -10 -4 -2 -3 -2 -5 4 2 12 5 -6 2 -1 -1 2 3 -0 2 3 2 0 -1 1 1 -1 -1
-5 -4 -0 -4 -10 -0 -11 -6 14 -8 20 -5 10 42 -25 -7 -2 1 -3 -4 -1 -2 3 -4 -4 -4 1 1 -5 -2 0 -0 1 2 2 2 0 3 -0 2 1 2 2 4
-2 -1 -1 -1 9 -7 -14 7 -9 2 -9 16 -5 -32 -7 -11 4 -3 -6 -0 1 4 11 11 5 -4 -8 2 2 0 -1 -1 3 -1 0 4 0 0 2 -0 2 3 2 1
-2 -1 0 -7 -5 13 1 -3 3 -6 -8 -18 -1 0 -4 -1 1 -1 -2 -2 -2 -0 -2 -1 16 -0 2 5 5 6 3 4 -1 6 -0 4 18 -1 1 2 2 3 2 -0
-1 -3 -1 1 1 1 10 27 -1 -8 -9 -4 52 9 -1 -2 -3 0 -3 -0 2 1 -1 -0 -2 1 -8 -9 -5 8 6 1 0 3 18 0 -12 24 -0 1 0 2 1 1
-1 -0 -3 -0 -8 15 -15 -3 -6 4 0 -12 -5 -8 -6 -11 9 -7 -4 -2 -6 -0 -0 -3 -3 -3 0 -3 -3 1 -3 8 7 10 8 13 -3 12 -1 -1 -4 4 0 1
-2 -5 -4 -9 -4 32 -4 -3 2 -11 -1 -5 -4 1 -2 -3 -4 0 -6 -3 -1 -4 -0 -3 -3 -4 -1 -1 -1 -2 -2 -8 0 -3 16 12 17 16 9 7 12 3 -0 1
-2 -4 2 3 18 -3 -6 -1 2 -2 -5 -2 -3 -2 -2 -3 -6 -1 -3 -4 -2 -1 0 -1 -5 -5 -0 -1 -3 -1 -1 -5 -7 -8 33 35 -5 16 4 -2 10 4 1 -1
-2 -1 2 -3 -1 -4 -3 1 1 1 -4 -2 0 -2 -3 -2 -3 -6 -5 -0 -1 -3 -2 -2 -2 -1 -3 -2 -1 -2 -1 -2 -1 -1 -7 -3 -3 -8 -2 3 -1 -1 2 3
-9 16 15 4 -7 -4 1 -0 1 -2 -3 -3 -0 -2 -2 -1 0 1 -2 -3 -5 -4 -3 -1 0 1 0 -1 -1 -1 -0 1 -12 -4 -1 -3 2 -1 -3 -2 2 1 -3 -4
3 -0 6 15 26 1 -3 4 -1 0 -2 -3 -2 -4 -1 -0 0 1 2 0 -1 0 2 -0 -3 -1 3 1 1 -7 0 3 -1 4 -1 -7 -4 -5 -2 -0 -2 -1 -0 -1
Height
5861 5864 5866 5869 5877 5876 5881 5880 5877 5882 5881 5882 5882 5883 5884 5885 5887 5887 5887 5890 5892 5894 5896 5897 5899 5898 5901 5904 5905 5906 5908 5908 5908 5909 5911 5913 5915 5916 5918 5919 5921 5923 5926 5929
5859 5861 5863 5866 5872 5872 5875 5878 5876 5878 5878 5880 5881 5882 5881 5884 5884 5884 5883 5887 5890 5891 5893 5899 5900 5900 5901 5905 5907 5908 5910 5911 5912 5912 5913 5915 5917 5918 5919 5920 5923 5925 5927 5930
5854 5857 5858 5859 5863 5867 5872 5877 5873 5872 5873 5877 5880 5881 5882 5882 5882 5881 5881 5882 5887 5890 5891 5898 5900 5901 5901 5905 5908 5909 5911 5912 5913 5914 5915 5917 5917 5920 5921 5922 5925 5926 5929 5931
5850 5853 5850 5856 5860 5863 5874 5870 5868 5869 5874 5876 5878 5880 5880 5880 5880 5880 5878 5881 5887 5889 5890 5897 5900 5901 5902 5905 5908 5910 5912 5914 5916 5917 5918 5920 5921 5921 5923 5924 5926 5928 5930 5932
5849 5846 5849 5852 5857 5861 5861 5865 5866 5867 5870 5875 5881 5879 5879 5878 5878 5878 5879 5880 5884 5889 5891 5898 5898 5901 5903 5905 5908 5911 5912 5915 5916 5919 5920 5922 5922 5923 5926 5926 5928 5929 5931 5934
5843 5843 5846 5851 5854 5857 5860 5861 5864 5866 5869 5875 5880 5878 5876 5874 5874 5877 5878 5878 5882 5888 5891 5894 5897 5899 5902 5905 5907 5910 5913 5915 5917 5919 5921 5923 5925 5926 5927 5929 5930 5931 5933 5935
5842 5843 5845 5848 5851 5854 5856 5861 5868 5872 5873 5877 5874 5874 5872 5871 5869 5872 5876 5878 5881 5885 5887 5892 5895 5898 5900 5904 5907 5910 5912 5915 5916 5919 5921 5923 5926 5928 5929 5930 5932 5933 5934 5936
5848 5846 5844 5845 5848 5854 5854 5860 5867 5867 5864 5868 5868 5870 5874 5867 5869 5870 5870 5874 5877 5882 5885 5889 5894 5896 5898 5901 5905 5908 5911 5913 5916 5917 5920 5922 5925 5928 5930 5931 5932 5934 5936 5937
5851 5850 5843 5844 5846 5851 5855 5855 5862 5859 5862 5864 5863 5864 5866 5866 5866 5867 5869 5871 5874 5879 5883 5887 5890 5893 5895 5898 5902 5906 5909 5912 5914 5916 5919 5921 5924 5927 5928 5931 5932 5934 5936 5937
5845 5846 5844 5844 5845 5848 5850 5856 5860 5862 5860 5859 5858 5844 5855 5858 5862 5865 5866 5868 5870 5874 5878 5883 5888 5890 5893 5893 5897 5903 5907 5910 5912 5914 5916 5919 5922 5924 5926 5930 5931 5932 5934 5936
5841 5844 5842 5844 5845 5844 5848 5850 5857 5858 5856 5855 5854 5851 5851 5855 5857 5861 5863 5864 5866 5868 5871 5877 5883 5886 5889 5891 5893 5898 5903 5906 5910 5912 5914 5917 5919 5922 5923 5925 5928 5930 5932 5934
5840 5841 5842 5842 5841 5842 5842 5841 5848 5849 5855 5850 5848 5842 5845 5850 5852 5855 5859 5860 5861 5863 5865 5869 5875 5878 5884 5887 5890 5893 5897 5902 5905 5908 5911 5913 5916 5918 5921 5923 5926 5928 5929 5931
5834 5839 5844 5843 5843 5839 5843 5840 5842 5842 5845 5844 5844 5846 5846 5850 5849 5852 5853 5855 5856 5857 5859 5864 5871 5874 5879 5882 5885 5888 5892 5895 5899 5903 5906 5908 5912 5914 5916 5918 5922 5925 5926 5928
5831 5834 5838 5838 5837 5835 5837 5839 5839 5843 5842 5843 5846 5851 5842 5843 5848 5847 5850 5851 5853 5854 5856 5859 5863 5841 5871 5875 5880 5884 5885 5889 5893 5898 5902 5905 5907 5909 5912 5915 5918 5921 5923 5924
5828 5830 5834 5835 5832 5833 5834 5839 5834 5845 5841 5838 5841 5840 5827 5833 5841 5844 5846 5847 5848 5849 5851 5853 5853 5852 5861 5870 5879 5883 5882 5884 5887 5892 5897 5901 5903 5906 5909 5911 5914 5916 5918 5919
5823 5825 5826 5827 5830 5831 5833 5836 5835 5836 5838 5831 5831 5835 5829 5836 5836 5840 5845 5846 5845 5846 5846 5843 5844 5850 5857 5860 5865 5870 5875 5879 5883 5887 5890 5894 5898 5901 5903 5906 5910 5912 5913 5915
5817 5821 5822 5825 5822 5824 5827 5830 5831 5830 5832 5833 5834 5817 5828 5828 5833 5838 5840 5842 5841 5842 5842 5843 5842 5843 5847 5851 5855 5863 5867 5871 5876 5880 5884 5887 5891 5895 5898 5901 5904 5906 5908 5909
5811 5813 5816 5820 5817 5816 5816 5817 5823 5823 5824 5826 5823 5816 5822 5826 5831 5834 5836 5838 5839 5838 5838 5837 5840 5841 5843 5843 5848 5853 5859 5863 5868 5872 5876 5880 5884 5888 5891 5893 5897 5899 5900 5902
5807 5808 5813 5814 5817 5817 5812 5813 5818 5818 5818 5818 5818 5815 5820 5823 5824 5828 5831 5833 5834 5834 5835 5835 5833 5833 5835 5837 5840 5845 5848 5854 5859 5863 5869 5872 5877 5879 5882 5885 5888 5890 5891 5892
5802 5803 5806 5811 5812 5813 5809 5804 5807 5811 5815 5811 5802 5809 5812 5816 5817 5819 5824 5827 5829 5830 5831 5830 5829 5830 5831 5831 5832 5833 5836 5843 5848 5854 5859 5863 5866 5865 5872 5875 5876 5879 5879 5882
5796 5798 5800 5803 5806 5809 5801 5799 5803 5807 5809 5803 5803 5804 5807 5808 5812 5813 5816 5820 5823 5824 5825 5826 5827 5827 5829 5831 5830 5828 5828 5831 5837 5842 5846 5852 5856 5856 5860 5863 5865 5867 5868 5872
5791 5794 5798 5800 5800 5798 5795 5797 5799 5797 5797 5797 5798 5800 5801 5802 5805 5805 5808 5810 5813 5816 5818 5821 5822 5823 5823 5825 5826 5827 5823 5824 5827 5826 5836 5840 5844 5847 5849 5851 5853 5857 5859 5862
5787 5788 5792 5793 5786 5788 5790 5792 5792 5792 5791 5792 5792 5794 5794 5795 5797 5799 5801 5802 5804 5807 5810 5812 5815 5818 5819 5820 5821 5822 5823 5823 5821 5823 5823 5830 5832 5833 5838 5840 5844 5847 5849 5850
5780 5780 5782 5783 5782 5783 5784 5785 5785 5786 5785 5786 5786 5787 5788 5789 5790 5791 5793 5796 5797 5798 5800 5803 5806 5809 5812 5814 5816 5817 5818 5820 5820 5821 5823 5825 5826 5829 5832 5835 5836 5838 5840 5840
5771 5774 5772 5773 5775 5776 5777 5778 5779 5780 5781 5781 5782 5783 5783 5784 5785 5786 5787 5787 5789 5793 5794 5795 5797 5800 5803 5806 5808 5811 5813 5814 5813 5817 5820 5821 5823 5825 5827 5828 5830 5832 5832 5831
5769 5769 5771 5774 5770 5772 5771 5773 5773 5774 5775 5775 5776 5777 5778 5779 5780 5781 5782 5784 5785 5786 5787 5789 5791 5792 5794 5798 5801 5803 5804 5806 5809 5811 5813 5816 5818 5819 5820 5821 5823 5823 5823 5824